Retour au catalogue

KUIPER-00436

ActifCommunicationsLEO
NORAD 68939·PAYLOAD·🇺🇸 United States

Lancé Apr 30, 2026 depuis Guiana Space Centre

Loading…

Prochains Passages (prochaines 24 heures)

TLE

FraisSource: CelesTrak SupGP

Époque: Sep 14, 2026, 19:59 UTC

1 68939C 26098W   26257.83325232  .00008264  00000+0  10819-2 0  2577
2 68939  51.9002  21.7459 0000591 105.9437  74.6039 14.79919244    16

Suivez KUIPER-00436 en temps réel avec AllMySat

Download on the App Store